Data supplied by UK-AIR on 5/4/2008
All Data GMT hour ending 
Status: R =Ratified P=Provisional,P*=As supplied
,,Glasgow City Chambers,,,,,,,,,,,,,,,,,,,,,,,
Date,time,"Nitric oxide",status,unit,"Nitrogen dioxide",status,unit,"Nitrogen oxides as nitrogen dioxide",status,unit
 
01-01-1988,01:00,3,R,ugm-3,15,R,ugm-3,19,R,ugm-3
01-01-1988,02:00,4,R,ugm-3,10,R,ugm-3,15,R,ugm-3
01-01-1988,03:00,1,R,ugm-3,11,R,ugm-3,13,R,ugm-3
01-01-1988,04:00,3,R,ugm-3,10,R,ugm-3,13,R,ugm-3
01-01-1988,05:00,1,R,ugm-3,10,R,ugm-3,11,R,ugm-3
01-01-1988,06:00,3,R,ugm-3,8,R,ugm-3,11,R,ugm-3
01-01-1988,07:00,0,R,ugm-3,11,R,ugm-3,11,R,ugm-3
01-01-1988,08:00,1,R,ugm-3,17,R,ugm-3,19,R,ugm-3
01-01-1988,09:00,1,R,ugm-3,25,R,ugm-3,27,R,ugm-3
01-01-1988,10:00,4,R,ugm-3,32,R,ugm-3,38,R,ugm-3
01-01-1988,11:00,6,R,ugm-3,29,R,ugm-3,38,R,ugm-3
01-01-1988,12:00,11,R,ugm-3,36,R,ugm-3,53,R,ugm-3
01-01-1988,13:00,11,R,ugm-3,32,R,ugm-3,50,R,ugm-3
01-01-1988,14:00,16,R,ugm-3,44,R,ugm-3,69,R,ugm-3
01-01-1988,15:00,29,R,ugm-3,63,R,ugm-3,107,R,ugm-3
01-01-1988,16:00,14,R,ugm-3,50,R,ugm-3,71,R,ugm-3
01-01-1988,17:00,16,R,ugm-3,52,R,ugm-3,76,R,ugm-3
01-01-1988,18:00,10,R,ugm-3,50,R,ugm-3,65,R,ugm-3
01-01-1988,19:00,5,R,ugm-3,31,R,ugm-3,38,R,ugm-3
01-01-1988,20:00,5,R,ugm-3,32,R,ugm-3,40,R,ugm-3
01-01-1988,21:00,8,R,ugm-3,32,R,ugm-3,44,R,ugm-3
01-01-1988,22:00,9,R,ugm-3,40,R,ugm-3,53,R,ugm-3
01-01-1988,23:00,10,R,ugm-3,48,R,ugm-3,63,R,ugm-3
01-01-1988,24:00,6,R,ugm-3,36,R,ugm-3,46,R,ugm-3
02-01-1988,01:00,6,R,ugm-3,29,R,ugm-3,38,R,ugm-3
02-01-1988,02:00,8,R,ugm-3,25,R,ugm-3,36,R,ugm-3
02-01-1988,03:00,8,R,ugm-3,25,R,ugm-3,36,R,ugm-3
02-01-1988,04:00,5,R,ugm-3,21,R,ugm-3,29,R,ugm-3
02-01-1988,05:00,4,R,ugm-3,17,R,ugm-3,23,R,ugm-3
02-01-1988,06:00,3,R,ugm-3,8,R,ugm-3,11,R,ugm-3
02-01-1988,07:00,3,R,ugm-3,13,R,ugm-3,17,R,ugm-3
02-01-1988,08:00,3,R,ugm-3,15,R,ugm-3,19,R,ugm-3
02-01-1988,09:00,5,R,ugm-3,17,R,ugm-3,25,R,ugm-3
02-01-1988,10:00,6,R,ugm-3,17,R,ugm-3,27,R,ugm-3
02-01-1988,11:00,8,R,ugm-3,25,R,ugm-3,36,R,ugm-3
02-01-1988,12:00,16,R,ugm-3,48,R,ugm-3,73,R,ugm-3
02-01-1988,13:00,23,R,ugm-3,48,R,ugm-3,82,R,ugm-3
02-01-1988,14:00,20,R,ugm-3,46,R,ugm-3,76,R,ugm-3
02-01-1988,15:00,30,R,ugm-3,59,R,ugm-3,105,R,ugm-3
02-01-1988,16:00,45,R,ugm-3,76,R,ugm-3,145,R,ugm-3
02-01-1988,17:00,25,R,ugm-3,73,R,ugm-3,111,R,ugm-3
02-01-1988,18:00,33,R,ugm-3,69,R,ugm-3,118,R,ugm-3
02-01-1988,19:00,24,R,ugm-3,63,R,ugm-3,99,R,ugm-3
02-01-1988,20:00,30,R,ugm-3,73,R,ugm-3,118,R,ugm-3
02-01-1988,21:00,26,R,ugm-3,76,R,ugm-3,117,R,ugm-3
02-01-1988,22:00,31,R,ugm-3,63,R,ugm-3,111,R,ugm-3
02-01-1988,23:00,13,R,ugm-3,55,R,ugm-3,74,R,ugm-3
02-01-1988,24:00,6,R,ugm-3,44,R,ugm-3,53,R,ugm-3
03-01-1988,01:00,4,R,ugm-3,40,R,ugm-3,46,R,ugm-3
03-01-1988,02:00,4,R,ugm-3,36,R,ugm-3,42,R,ugm-3
03-01-1988,03:00,9,R,ugm-3,29,R,ugm-3,42,R,ugm-3
03-01-1988,04:00,4,R,ugm-3,40,R,ugm-3,46,R,ugm-3
03-01-1988,05:00,8,R,ugm-3,40,R,ugm-3,52,R,ugm-3
03-01-1988,06:00,4,R,ugm-3,52,R,ugm-3,57,R,ugm-3
03-01-1988,07:00,19,R,ugm-3,53,R,ugm-3,82,R,ugm-3
03-01-1988,08:00,140,R,ugm-3,71,R,ugm-3,285,R,ugm-3
03-01-1988,09:00,123,R,ugm-3,74,R,ugm-3,262,R,ugm-3
03-01-1988,10:00,10,R,ugm-3,11,R,ugm-3,27,R,ugm-3
03-01-1988,11:00,0,R,ugm-3,25,R,ugm-3,25,R,ugm-3
03-01-1988,12:00,18,R,ugm-3,50,R,ugm-3,76,R,ugm-3
03-01-1988,13:00,13,R,ugm-3,57,R,ugm-3,76,R,ugm-3
03-01-1988,14:00,11,R,ugm-3,53,R,ugm-3,71,R,ugm-3
03-01-1988,15:00,21,R,ugm-3,63,R,ugm-3,96,R,ugm-3
03-01-1988,16:00,35,R,ugm-3,97,R,ugm-3,151,R,ugm-3
03-01-1988,17:00,13,R,ugm-3,76,R,ugm-3,96,R,ugm-3
03-01-1988,18:00,35,R,ugm-3,74,R,ugm-3,128,R,ugm-3
03-01-1988,19:00,15,R,ugm-3,74,R,ugm-3,97,R,ugm-3
03-01-1988,20:00,21,R,ugm-3,94,R,ugm-3,126,R,ugm-3
03-01-1988,21:00,18,R,ugm-3,84,R,ugm-3,111,R,ugm-3
03-01-1988,22:00,51,R,ugm-3,69,R,ugm-3,147,R,ugm-3
03-01-1988,23:00,16,R,ugm-3,44,R,ugm-3,69,R,ugm-3
03-01-1988,24:00,1,R,ugm-3,40,R,ugm-3,42,R,ugm-3
04-01-1988,01:00,1,R,ugm-3,32,R,ugm-3,34,R,ugm-3
04-01-1988,02:00,0,R,ugm-3,31,R,ugm-3,31,R,ugm-3
04-01-1988,03:00,44,R,ugm-3,11,R,ugm-3,78,R,ugm-3
04-01-1988,04:00,3,R,ugm-3,34,R,ugm-3,38,R,ugm-3
04-01-1988,05:00,33,R,ugm-3,8,R,ugm-3,57,R,ugm-3
04-01-1988,06:00,4,R,ugm-3,36,R,ugm-3,42,R,ugm-3
04-01-1988,07:00,19,R,ugm-3,65,R,ugm-3,94,R,ugm-3
04-01-1988,08:00,129,R,ugm-3,99,R,ugm-3,296,R,ugm-3
04-01-1988,09:00,124,R,ugm-3,69,R,ugm-3,258,R,ugm-3
04-01-1988,10:00,171,R,ugm-3,73,R,ugm-3,334,R,ugm-3
04-01-1988,11:00,163,R,ugm-3,94,R,ugm-3,342,R,ugm-3
04-01-1988,12:00,249,R,ugm-3,117,R,ugm-3,497,R,ugm-3
04-01-1988,13:00,355,R,ugm-3,126,R,ugm-3,669,R,ugm-3
04-01-1988,14:00,350,R,ugm-3,122,R,ugm-3,657,R,ugm-3
04-01-1988,15:00,248,R,ugm-3,99,R,ugm-3,478,R,ugm-3
04-01-1988,16:00,300,R,ugm-3,113,R,ugm-3,571,R,ugm-3
04-01-1988,17:00,286,R,ugm-3,103,R,ugm-3,541,R,ugm-3
04-01-1988,18:00,254,R,ugm-3,107,R,ugm-3,495,R,ugm-3
04-01-1988,19:00,175,R,ugm-3,84,R,ugm-3,351,R,ugm-3
04-01-1988,20:00,171,R,ugm-3,82,R,ugm-3,344,R,ugm-3
04-01-1988,21:00,94,R,ugm-3,84,R,ugm-3,227,R,ugm-3
04-01-1988,22:00,125,R,ugm-3,113,R,ugm-3,304,R,ugm-3
04-01-1988,23:00,164,R,ugm-3,80,R,ugm-3,330,R,ugm-3
04-01-1988,24:00,234,R,ugm-3,96,R,ugm-3,453,R,ugm-3
05-01-1988,01:00,196,R,ugm-3,82,R,ugm-3,382,R,ugm-3
05-01-1988,02:00,160,R,ugm-3,76,R,ugm-3,321,R,ugm-3
05-01-1988,03:00,101,R,ugm-3,76,R,ugm-3,231,R,ugm-3
05-01-1988,04:00,95,R,ugm-3,69,R,ugm-3,214,R,ugm-3
05-01-1988,05:00,24,R,ugm-3,55,R,ugm-3,92,R,ugm-3
05-01-1988,06:00,24,R,ugm-3,55,R,ugm-3,92,R,ugm-3
05-01-1988,07:00,39,R,ugm-3,65,R,ugm-3,124,R,ugm-3
05-01-1988,08:00,105,R,ugm-3,73,R,ugm-3,233,R,ugm-3
05-01-1988,09:00,335,R,ugm-3,84,R,ugm-3,596,R,ugm-3
05-01-1988,10:00,224,R,ugm-3,82,R,ugm-3,424,R,ugm-3
05-01-1988,11:00,195,R,ugm-3,80,R,ugm-3,378,R,ugm-3
05-01-1988,12:00,190,R,ugm-3,80,R,ugm-3,371,R,ugm-3
05-01-1988,13:00,153,R,ugm-3,80,R,ugm-3,313,R,ugm-3
05-01-1988,14:00,174,R,ugm-3,82,R,ugm-3,348,R,ugm-3
05-01-1988,15:00,150,R,ugm-3,84,R,ugm-3,313,R,ugm-3
05-01-1988,16:00,269,R,ugm-3,99,R,ugm-3,510,R,ugm-3
05-01-1988,17:00,476,R,ugm-3,120,R,ugm-3,848,R,ugm-3
05-01-1988,18:00,518,R,ugm-3,122,R,ugm-3,913,R,ugm-3
05-01-1988,19:00,330,R,ugm-3,90,R,ugm-3,594,R,ugm-3
05-01-1988,20:00,316,R,ugm-3,90,R,ugm-3,573,R,ugm-3
05-01-1988,21:00,318,R,ugm-3,88,R,ugm-3,573,R,ugm-3
05-01-1988,22:00,253,R,ugm-3,82,R,ugm-3,468,R,ugm-3
05-01-1988,23:00,275,R,ugm-3,84,R,ugm-3,504,R,ugm-3
05-01-1988,24:00,205,R,ugm-3,78,R,ugm-3,392,R,ugm-3
06-01-1988,01:00,123,R,ugm-3,67,R,ugm-3,254,R,ugm-3
06-01-1988,02:00,56,R,ugm-3,65,R,ugm-3,151,R,ugm-3
06-01-1988,03:00,44,R,ugm-3,61,R,ugm-3,128,R,ugm-3
06-01-1988,04:00,18,R,ugm-3,52,R,ugm-3,78,R,ugm-3
06-01-1988,05:00,19,R,ugm-3,34,R,ugm-3,63,R,ugm-3
06-01-1988,06:00,39,R,ugm-3,53,R,ugm-3,113,R,ugm-3
06-01-1988,07:00,55,R,ugm-3,61,R,ugm-3,145,R,ugm-3
06-01-1988,08:00,105,R,ugm-3,73,R,ugm-3,233,R,ugm-3
06-01-1988,09:00,111,R,ugm-3,74,R,ugm-3,244,R,ugm-3
06-01-1988,10:00,126,R,ugm-3,84,R,ugm-3,277,R,ugm-3
06-01-1988,11:00,,,,,,,,,
06-01-1988,12:00,93,R,ugm-3,82,R,ugm-3,223,R,ugm-3
06-01-1988,13:00,64,R,ugm-3,76,R,ugm-3,174,R,ugm-3
06-01-1988,14:00,86,R,ugm-3,84,R,ugm-3,216,R,ugm-3
06-01-1988,15:00,101,R,ugm-3,90,R,ugm-3,244,R,ugm-3
06-01-1988,16:00,74,R,ugm-3,80,R,ugm-3,193,R,ugm-3
06-01-1988,17:00,63,R,ugm-3,80,R,ugm-3,176,R,ugm-3
06-01-1988,18:00,65,R,ugm-3,80,R,ugm-3,180,R,ugm-3
06-01-1988,19:00,70,R,ugm-3,78,R,ugm-3,185,R,ugm-3
06-01-1988,20:00,56,R,ugm-3,74,R,ugm-3,160,R,ugm-3
06-01-1988,21:00,34,R,ugm-3,69,R,ugm-3,120,R,ugm-3
06-01-1988,22:00,19,R,ugm-3,61,R,ugm-3,90,R,ugm-3
06-01-1988,23:00,19,R,ugm-3,55,R,ugm-3,84,R,ugm-3
06-01-1988,24:00,10,R,ugm-3,38,R,ugm-3,53,R,ugm-3
07-01-1988,01:00,4,R,ugm-3,27,R,ugm-3,32,R,ugm-3
07-01-1988,02:00,6,R,ugm-3,23,R,ugm-3,32,R,ugm-3
07-01-1988,03:00,1,R,ugm-3,17,R,ugm-3,19,R,ugm-3
07-01-1988,04:00,1,R,ugm-3,19,R,ugm-3,21,R,ugm-3
07-01-1988,05:00,3,R,ugm-3,21,R,ugm-3,25,R,ugm-3
07-01-1988,06:00,4,R,ugm-3,32,R,ugm-3,38,R,ugm-3
07-01-1988,07:00,14,R,ugm-3,57,R,ugm-3,78,R,ugm-3
07-01-1988,08:00,76,R,ugm-3,92,R,ugm-3,208,R,ugm-3
07-01-1988,09:00,245,R,ugm-3,107,R,ugm-3,481,R,ugm-3
07-01-1988,10:00,236,R,ugm-3,111,R,ugm-3,472,R,ugm-3
07-01-1988,11:00,214,R,ugm-3,111,R,ugm-3,437,R,ugm-3
07-01-1988,12:00,161,R,ugm-3,103,R,ugm-3,350,R,ugm-3
07-01-1988,13:00,98,R,ugm-3,86,R,ugm-3,235,R,ugm-3
07-01-1988,14:00,83,R,ugm-3,80,R,ugm-3,206,R,ugm-3
07-01-1988,15:00,93,R,ugm-3,88,R,ugm-3,229,R,ugm-3
07-01-1988,16:00,149,R,ugm-3,99,R,ugm-3,327,R,ugm-3
07-01-1988,17:00,155,R,ugm-3,97,R,ugm-3,334,R,ugm-3
07-01-1988,18:00,185,R,ugm-3,96,R,ugm-3,378,R,ugm-3
07-01-1988,19:00,263,R,ugm-3,105,R,ugm-3,506,R,ugm-3
07-01-1988,20:00,290,R,ugm-3,105,R,ugm-3,548,R,ugm-3
07-01-1988,21:00,195,R,ugm-3,92,R,ugm-3,390,R,ugm-3
07-01-1988,22:00,145,R,ugm-3,80,R,ugm-3,302,R,ugm-3
07-01-1988,23:00,139,R,ugm-3,84,R,ugm-3,296,R,ugm-3
07-01-1988,24:00,81,R,ugm-3,76,R,ugm-3,201,R,ugm-3
08-01-1988,01:00,45,R,ugm-3,69,R,ugm-3,138,R,ugm-3
08-01-1988,02:00,18,R,ugm-3,57,R,ugm-3,84,R,ugm-3
08-01-1988,03:00,9,R,ugm-3,48,R,ugm-3,61,R,ugm-3
08-01-1988,04:00,5,R,ugm-3,29,R,ugm-3,36,R,ugm-3
08-01-1988,05:00,4,R,ugm-3,23,R,ugm-3,29,R,ugm-3
08-01-1988,06:00,18,R,ugm-3,44,R,ugm-3,71,R,ugm-3
08-01-1988,07:00,100,R,ugm-3,80,R,ugm-3,233,R,ugm-3
08-01-1988,08:00,256,R,ugm-3,96,R,ugm-3,487,R,ugm-3
08-01-1988,09:00,478,R,ugm-3,103,R,ugm-3,833,R,ugm-3
08-01-1988,10:00,310,R,ugm-3,88,R,ugm-3,562,R,ugm-3
08-01-1988,11:00,343,R,ugm-3,97,R,ugm-3,621,R,ugm-3
08-01-1988,12:00,364,R,ugm-3,97,R,ugm-3,653,R,ugm-3
08-01-1988,13:00,269,R,ugm-3,86,R,ugm-3,497,R,ugm-3
08-01-1988,14:00,233,R,ugm-3,86,R,ugm-3,441,R,ugm-3
08-01-1988,15:00,391,R,ugm-3,103,R,ugm-3,701,R,ugm-3
08-01-1988,16:00,473,R,ugm-3,101,R,ugm-3,823,R,ugm-3
08-01-1988,17:00,434,R,ugm-3,101,R,ugm-3,764,R,ugm-3
08-01-1988,18:00,449,R,ugm-3,99,R,ugm-3,785,R,ugm-3
08-01-1988,19:00,316,R,ugm-3,84,R,ugm-3,567,R,ugm-3
08-01-1988,20:00,259,R,ugm-3,78,R,ugm-3,474,R,ugm-3
08-01-1988,21:00,64,R,ugm-3,57,R,ugm-3,155,R,ugm-3
08-01-1988,22:00,60,R,ugm-3,55,R,ugm-3,147,R,ugm-3
08-01-1988,23:00,25,R,ugm-3,42,R,ugm-3,80,R,ugm-3
08-01-1988,24:00,8,R,ugm-3,23,R,ugm-3,34,R,ugm-3
09-01-1988,01:00,5,R,ugm-3,21,R,ugm-3,29,R,ugm-3
09-01-1988,02:00,5,R,ugm-3,21,R,ugm-3,29,R,ugm-3
09-01-1988,03:00,1,R,ugm-3,15,R,ugm-3,17,R,ugm-3
09-01-1988,04:00,3,R,ugm-3,13,R,ugm-3,17,R,ugm-3
09-01-1988,05:00,1,R,ugm-3,11,R,ugm-3,13,R,ugm-3
09-01-1988,06:00,0,R,ugm-3,10,R,ugm-3,10,R,ugm-3
09-01-1988,07:00,0,R,ugm-3,8,R,ugm-3,8,R,ugm-3
09-01-1988,08:00,1,R,ugm-3,11,R,ugm-3,13,R,ugm-3
09-01-1988,09:00,4,R,ugm-3,17,R,ugm-3,23,R,ugm-3
09-01-1988,10:00,9,R,ugm-3,32,R,ugm-3,46,R,ugm-3
09-01-1988,11:00,20,R,ugm-3,50,R,ugm-3,80,R,ugm-3
09-01-1988,12:00,24,R,ugm-3,55,R,ugm-3,92,R,ugm-3
09-01-1988,13:00,38,R,ugm-3,73,R,ugm-3,130,R,ugm-3
09-01-1988,14:00,18,R,ugm-3,55,R,ugm-3,82,R,ugm-3
09-01-1988,15:00,21,R,ugm-3,67,R,ugm-3,99,R,ugm-3
09-01-1988,16:00,19,R,ugm-3,53,R,ugm-3,82,R,ugm-3
09-01-1988,17:00,19,R,ugm-3,57,R,ugm-3,86,R,ugm-3
09-01-1988,18:00,15,R,ugm-3,55,R,ugm-3,78,R,ugm-3
09-01-1988,19:00,5,R,ugm-3,31,R,ugm-3,38,R,ugm-3
09-01-1988,20:00,3,R,ugm-3,23,R,ugm-3,27,R,ugm-3
09-01-1988,21:00,5,R,ugm-3,15,R,ugm-3,23,R,ugm-3
09-01-1988,22:00,4,R,ugm-3,21,R,ugm-3,27,R,ugm-3
09-01-1988,23:00,4,R,ugm-3,21,R,ugm-3,27,R,ugm-3
09-01-1988,24:00,4,R,ugm-3,19,R,ugm-3,25,R,ugm-3
10-01-1988,01:00,3,R,ugm-3,19,R,ugm-3,23,R,ugm-3
10-01-1988,02:00,3,R,ugm-3,15,R,ugm-3,19,R,ugm-3
10-01-1988,03:00,1,R,ugm-3,10,R,ugm-3,11,R,ugm-3
10-01-1988,04:00,0,R,ugm-3,10,R,ugm-3,10,R,ugm-3
10-01-1988,05:00,0,R,ugm-3,10,R,ugm-3,10,R,ugm-3
10-01-1988,06:00,0,R,ugm-3,6,R,ugm-3,6,R,ugm-3
10-01-1988,07:00,0,R,ugm-3,10,R,ugm-3,10,R,ugm-3
10-01-1988,08:00,1,R,ugm-3,15,R,ugm-3,17,R,ugm-3
10-01-1988,09:00,3,R,ugm-3,25,R,ugm-3,29,R,ugm-3
10-01-1988,10:00,3,R,ugm-3,25,R,ugm-3,29,R,ugm-3
10-01-1988,11:00,3,R,ugm-3,25,R,ugm-3,29,R,ugm-3
10-01-1988,12:00,3,R,ugm-3,32,R,ugm-3,36,R,ugm-3
10-01-1988,13:00,5,R,ugm-3,36,R,ugm-3,44,R,ugm-3
10-01-1988,14:00,8,R,ugm-3,44,R,ugm-3,55,R,ugm-3
10-01-1988,15:00,10,R,ugm-3,42,R,ugm-3,57,R,ugm-3
10-01-1988,16:00,15,R,ugm-3,46,R,ugm-3,69,R,ugm-3
10-01-1988,17:00,6,R,ugm-3,46,R,ugm-3,55,R,ugm-3
10-01-1988,18:00,11,R,ugm-3,48,R,ugm-3,65,R,ugm-3
10-01-1988,19:00,19,R,ugm-3,40,R,ugm-3,69,R,ugm-3
10-01-1988,20:00,11,R,ugm-3,48,R,ugm-3,65,R,ugm-3
10-01-1988,21:00,14,R,ugm-3,63,R,ugm-3,84,R,ugm-3
10-01-1988,22:00,4,R,ugm-3,31,R,ugm-3,36,R,ugm-3
10-01-1988,23:00,4,R,ugm-3,36,R,ugm-3,42,R,ugm-3
10-01-1988,24:00,1,R,ugm-3,27,R,ugm-3,29,R,ugm-3
11-01-1988,01:00,3,R,ugm-3,13,R,ugm-3,17,R,ugm-3
11-01-1988,02:00,3,R,ugm-3,13,R,ugm-3,17,R,ugm-3
11-01-1988,03:00,3,R,ugm-3,11,R,ugm-3,15,R,ugm-3
11-01-1988,04:00,4,R,ugm-3,21,R,ugm-3,27,R,ugm-3
11-01-1988,05:00,1,R,ugm-3,32,R,ugm-3,34,R,ugm-3
11-01-1988,06:00,4,R,ugm-3,29,R,ugm-3,34,R,ugm-3
11-01-1988,07:00,15,R,ugm-3,50,R,ugm-3,73,R,ugm-3
11-01-1988,08:00,73,R,ugm-3,94,R,ugm-3,204,R,ugm-3
11-01-1988,09:00,195,R,ugm-3,117,R,ugm-3,414,R,ugm-3
11-01-1988,10:00,144,R,ugm-3,97,R,ugm-3,317,R,ugm-3
11-01-1988,11:00,74,R,ugm-3,88,R,ugm-3,201,R,ugm-3
11-01-1988,12:00,56,R,ugm-3,84,R,ugm-3,170,R,ugm-3
11-01-1988,13:00,43,R,ugm-3,74,R,ugm-3,139,R,ugm-3
11-01-1988,14:00,66,R,ugm-3,82,R,ugm-3,183,R,ugm-3
11-01-1988,15:00,63,R,ugm-3,82,R,ugm-3,178,R,ugm-3
11-01-1988,16:00,118,R,ugm-3,61,R,ugm-3,241,R,ugm-3
11-01-1988,17:00,93,R,ugm-3,88,R,ugm-3,229,R,ugm-3
11-01-1988,18:00,90,R,ugm-3,80,R,ugm-3,218,R,ugm-3
11-01-1988,19:00,24,R,ugm-3,65,R,ugm-3,101,R,ugm-3
11-01-1988,20:00,9,R,ugm-3,46,R,ugm-3,59,R,ugm-3
11-01-1988,21:00,18,R,ugm-3,46,R,ugm-3,73,R,ugm-3
11-01-1988,22:00,11,R,ugm-3,48,R,ugm-3,65,R,ugm-3
11-01-1988,23:00,4,R,ugm-3,29,R,ugm-3,34,R,ugm-3
11-01-1988,24:00,1,R,ugm-3,19,R,ugm-3,21,R,ugm-3
12-01-1988,01:00,1,R,ugm-3,11,R,ugm-3,13,R,ugm-3
12-01-1988,02:00,0,R,ugm-3,13,R,ugm-3,13,R,ugm-3
12-01-1988,03:00,0,R,ugm-3,10,R,ugm-3,10,R,ugm-3
12-01-1988,04:00,0,R,ugm-3,10,R,ugm-3,10,R,ugm-3
12-01-1988,05:00,0,R,ugm-3,10,R,ugm-3,10,R,ugm-3
12-01-1988,06:00,0,R,ugm-3,13,R,ugm-3,13,R,ugm-3
12-01-1988,07:00,1,R,ugm-3,19,R,ugm-3,21,R,ugm-3
12-01-1988,08:00,5,R,ugm-3,29,R,ugm-3,36,R,ugm-3
12-01-1988,09:00,18,R,ugm-3,48,R,ugm-3,74,R,ugm-3
12-01-1988,10:00,18,R,ugm-3,53,R,ugm-3,80,R,ugm-3
12-01-1988,11:00,14,R,ugm-3,44,R,ugm-3,65,R,ugm-3
12-01-1988,12:00,15,R,ugm-3,46,R,ugm-3,69,R,ugm-3
12-01-1988,13:00,15,R,ugm-3,44,R,ugm-3,67,R,ugm-3
12-01-1988,14:00,14,R,ugm-3,44,R,ugm-3,65,R,ugm-3
12-01-1988,15:00,20,R,ugm-3,48,R,ugm-3,78,R,ugm-3
12-01-1988,16:00,21,R,ugm-3,48,R,ugm-3,80,R,ugm-3
12-01-1988,17:00,18,R,ugm-3,46,R,ugm-3,73,R,ugm-3
12-01-1988,18:00,15,R,ugm-3,42,R,ugm-3,65,R,ugm-3
12-01-1988,19:00,8,R,ugm-3,32,R,ugm-3,44,R,ugm-3
12-01-1988,20:00,4,R,ugm-3,29,R,ugm-3,34,R,ugm-3
12-01-1988,21:00,8,R,ugm-3,31,R,ugm-3,42,R,ugm-3
12-01-1988,22:00,9,R,ugm-3,31,R,ugm-3,44,R,ugm-3
12-01-1988,23:00,3,R,ugm-3,23,R,ugm-3,27,R,ugm-3
12-01-1988,24:00,3,R,ugm-3,25,R,ugm-3,29,R,ugm-3
13-01-1988,01:00,1,R,ugm-3,17,R,ugm-3,19,R,ugm-3
13-01-1988,02:00,0,R,ugm-3,17,R,ugm-3,17,R,ugm-3
13-01-1988,03:00,0,R,ugm-3,19,R,ugm-3,19,R,ugm-3
13-01-1988,04:00,0,R,ugm-3,13,R,ugm-3,13,R,ugm-3
13-01-1988,05:00,,,,,,,,,
13-01-1988,06:00,,,,,,,,,
13-01-1988,07:00,,,,,,,,,
13-01-1988,08:00,,,,,,,,,
13-01-1988,09:00,23,R,ugm-3,59,R,ugm-3,94,R,ugm-3
13-01-1988,10:00,16,R,ugm-3,53,R,ugm-3,78,R,ugm-3
13-01-1988,11:00,16,R,ugm-3,48,R,ugm-3,73,R,ugm-3
13-01-1988,12:00,20,R,ugm-3,50,R,ugm-3,80,R,ugm-3
13-01-1988,13:00,21,R,ugm-3,48,R,ugm-3,80,R,ugm-3
13-01-1988,14:00,15,R,ugm-3,46,R,ugm-3,69,R,ugm-3
13-01-1988,15:00,15,R,ugm-3,52,R,ugm-3,74,R,ugm-3
13-01-1988,16:00,21,R,ugm-3,59,R,ugm-3,92,R,ugm-3
13-01-1988,17:00,49,R,ugm-3,73,R,ugm-3,147,R,ugm-3
13-01-1988,18:00,189,R,ugm-3,92,R,ugm-3,380,R,ugm-3
13-01-1988,19:00,89,R,ugm-3,80,R,ugm-3,216,R,ugm-3
13-01-1988,20:00,69,R,ugm-3,76,R,ugm-3,181,R,ugm-3
13-01-1988,21:00,38,R,ugm-3,55,R,ugm-3,113,R,ugm-3
13-01-1988,22:00,10,R,ugm-3,36,R,ugm-3,52,R,ugm-3
13-01-1988,23:00,25,R,ugm-3,44,R,ugm-3,82,R,ugm-3
13-01-1988,24:00,26,R,ugm-3,52,R,ugm-3,92,R,ugm-3
14-01-1988,01:00,5,R,ugm-3,31,R,ugm-3,38,R,ugm-3
14-01-1988,02:00,13,R,ugm-3,34,R,ugm-3,53,R,ugm-3
14-01-1988,03:00,10,R,ugm-3,31,R,ugm-3,46,R,ugm-3
14-01-1988,04:00,0,R,ugm-3,15,R,ugm-3,15,R,ugm-3
14-01-1988,05:00,0,R,ugm-3,17,R,ugm-3,17,R,ugm-3
14-01-1988,06:00,3,R,ugm-3,32,R,ugm-3,36,R,ugm-3
14-01-1988,07:00,9,R,ugm-3,42,R,ugm-3,55,R,ugm-3
14-01-1988,08:00,29,R,ugm-3,69,R,ugm-3,113,R,ugm-3
14-01-1988,09:00,106,R,ugm-3,92,R,ugm-3,254,R,ugm-3
14-01-1988,10:00,68,R,ugm-3,86,R,ugm-3,189,R,ugm-3
14-01-1988,11:00,28,R,ugm-3,61,R,ugm-3,103,R,ugm-3
14-01-1988,12:00,31,R,ugm-3,61,R,ugm-3,109,R,ugm-3
14-01-1988,13:00,24,R,ugm-3,53,R,ugm-3,90,R,ugm-3
14-01-1988,14:00,24,R,ugm-3,55,R,ugm-3,92,R,ugm-3
14-01-1988,15:00,20,R,ugm-3,55,R,ugm-3,86,R,ugm-3
14-01-1988,16:00,25,R,ugm-3,53,R,ugm-3,92,R,ugm-3
14-01-1988,17:00,56,R,ugm-3,76,R,ugm-3,162,R,ugm-3
14-01-1988,18:00,44,R,ugm-3,71,R,ugm-3,138,R,ugm-3
14-01-1988,19:00,14,R,ugm-3,44,R,ugm-3,65,R,ugm-3
14-01-1988,20:00,6,R,ugm-3,36,R,ugm-3,46,R,ugm-3
14-01-1988,21:00,8,R,ugm-3,48,R,ugm-3,59,R,ugm-3
14-01-1988,22:00,8,R,ugm-3,38,R,ugm-3,50,R,ugm-3
14-01-1988,23:00,8,R,ugm-3,38,R,ugm-3,50,R,ugm-3
14-01-1988,24:00,5,R,ugm-3,40,R,ugm-3,48,R,ugm-3
15-01-1988,01:00,1,R,ugm-3,23,R,ugm-3,25,R,ugm-3
15-01-1988,02:00,1,R,ugm-3,15,R,ugm-3,17,R,ugm-3
15-01-1988,03:00,0,R,ugm-3,15,R,ugm-3,15,R,ugm-3
15-01-1988,04:00,0,R,ugm-3,13,R,ugm-3,13,R,ugm-3
15-01-1988,05:00,0,R,ugm-3,15,R,ugm-3,15,R,ugm-3
15-01-1988,06:00,1,R,ugm-3,25,R,ugm-3,27,R,ugm-3
15-01-1988,07:00,6,R,ugm-3,36,R,ugm-3,46,R,ugm-3
15-01-1988,08:00,20,R,ugm-3,53,R,ugm-3,84,R,ugm-3
15-01-1988,09:00,39,R,ugm-3,71,R,ugm-3,130,R,ugm-3
15-01-1988,10:00,31,R,ugm-3,63,R,ugm-3,111,R,ugm-3
15-01-1988,11:00,34,R,ugm-3,63,R,ugm-3,115,R,ugm-3
15-01-1988,12:00,35,R,ugm-3,65,R,ugm-3,118,R,ugm-3
15-01-1988,13:00,39,R,ugm-3,63,R,ugm-3,122,R,ugm-3
15-01-1988,14:00,48,R,ugm-3,63,R,ugm-3,136,R,ugm-3
15-01-1988,15:00,50,R,ugm-3,67,R,ugm-3,143,R,ugm-3
15-01-1988,16:00,53,R,ugm-3,69,R,ugm-3,149,R,ugm-3
15-01-1988,17:00,61,R,ugm-3,73,R,ugm-3,166,R,ugm-3
15-01-1988,18:00,73,R,ugm-3,73,R,ugm-3,183,R,ugm-3
15-01-1988,19:00,45,R,ugm-3,65,R,ugm-3,134,R,ugm-3
15-01-1988,20:00,48,R,ugm-3,69,R,ugm-3,141,R,ugm-3
15-01-1988,21:00,21,R,ugm-3,61,R,ugm-3,94,R,ugm-3
15-01-1988,22:00,28,R,ugm-3,65,R,ugm-3,107,R,ugm-3
15-01-1988,23:00,41,R,ugm-3,73,R,ugm-3,136,R,ugm-3
15-01-1988,24:00,45,R,ugm-3,73,R,ugm-3,141,R,ugm-3
16-01-1988,01:00,18,R,ugm-3,63,R,ugm-3,90,R,ugm-3
16-01-1988,02:00,18,R,ugm-3,63,R,ugm-3,90,R,ugm-3
16-01-1988,03:00,21,R,ugm-3,61,R,ugm-3,94,R,ugm-3
16-01-1988,04:00,9,R,ugm-3,55,R,ugm-3,69,R,ugm-3
16-01-1988,05:00,8,R,ugm-3,50,R,ugm-3,61,R,ugm-3
16-01-1988,06:00,5,R,ugm-3,46,R,ugm-3,53,R,ugm-3
16-01-1988,07:00,19,R,ugm-3,50,R,ugm-3,78,R,ugm-3
16-01-1988,08:00,56,R,ugm-3,63,R,ugm-3,149,R,ugm-3
16-01-1988,09:00,79,R,ugm-3,65,R,ugm-3,185,R,ugm-3
16-01-1988,10:00,110,R,ugm-3,71,R,ugm-3,239,R,ugm-3
16-01-1988,11:00,189,R,ugm-3,78,R,ugm-3,367,R,ugm-3
16-01-1988,12:00,221,R,ugm-3,94,R,ugm-3,432,R,ugm-3
16-01-1988,13:00,160,R,ugm-3,78,R,ugm-3,323,R,ugm-3
16-01-1988,14:00,124,R,ugm-3,78,R,ugm-3,267,R,ugm-3
16-01-1988,15:00,80,R,ugm-3,71,R,ugm-3,193,R,ugm-3
16-01-1988,16:00,80,R,ugm-3,78,R,ugm-3,201,R,ugm-3
16-01-1988,17:00,65,R,ugm-3,71,R,ugm-3,170,R,ugm-3
16-01-1988,18:00,73,R,ugm-3,69,R,ugm-3,180,R,ugm-3
16-01-1988,19:00,49,R,ugm-3,67,R,ugm-3,141,R,ugm-3
16-01-1988,20:00,71,R,ugm-3,69,R,ugm-3,178,R,ugm-3
16-01-1988,21:00,36,R,ugm-3,63,R,ugm-3,118,R,ugm-3
16-01-1988,22:00,39,R,ugm-3,63,R,ugm-3,122,R,ugm-3
16-01-1988,23:00,55,R,ugm-3,67,R,ugm-3,151,R,ugm-3
16-01-1988,24:00,66,R,ugm-3,67,R,ugm-3,168,R,ugm-3
17-01-1988,01:00,49,R,ugm-3,63,R,ugm-3,138,R,ugm-3
17-01-1988,02:00,31,R,ugm-3,55,R,ugm-3,103,R,ugm-3
17-01-1988,03:00,1,R,ugm-3,23,R,ugm-3,25,R,ugm-3
17-01-1988,04:00,1,R,ugm-3,19,R,ugm-3,21,R,ugm-3
17-01-1988,05:00,11,R,ugm-3,15,R,ugm-3,32,R,ugm-3
17-01-1988,06:00,13,R,ugm-3,11,R,ugm-3,31,R,ugm-3
17-01-1988,07:00,10,R,ugm-3,17,R,ugm-3,32,R,ugm-3
17-01-1988,08:00,10,R,ugm-3,25,R,ugm-3,40,R,ugm-3
17-01-1988,09:00,28,R,ugm-3,65,R,ugm-3,107,R,ugm-3
17-01-1988,10:00,24,R,ugm-3,57,R,ugm-3,94,R,ugm-3
17-01-1988,11:00,35,R,ugm-3,80,R,ugm-3,134,R,ugm-3
17-01-1988,12:00,49,R,ugm-3,82,R,ugm-3,157,R,ugm-3
17-01-1988,13:00,44,R,ugm-3,74,R,ugm-3,141,R,ugm-3
17-01-1988,14:00,28,R,ugm-3,69,R,ugm-3,111,R,ugm-3
17-01-1988,15:00,39,R,ugm-3,74,R,ugm-3,134,R,ugm-3
17-01-1988,16:00,54,R,ugm-3,84,R,ugm-3,166,R,ugm-3
17-01-1988,17:00,111,R,ugm-3,90,R,ugm-3,260,R,ugm-3
17-01-1988,18:00,110,R,ugm-3,88,R,ugm-3,256,R,ugm-3
17-01-1988,19:00,86,R,ugm-3,84,R,ugm-3,216,R,ugm-3
17-01-1988,20:00,114,R,ugm-3,78,R,ugm-3,252,R,ugm-3
17-01-1988,21:00,190,R,ugm-3,82,R,ugm-3,372,R,ugm-3
17-01-1988,22:00,196,R,ugm-3,84,R,ugm-3,384,R,ugm-3
17-01-1988,23:00,288,R,ugm-3,86,R,ugm-3,525,R,ugm-3
17-01-1988,24:00,255,R,ugm-3,84,R,ugm-3,474,R,ugm-3
18-01-1988,01:00,136,R,ugm-3,69,R,ugm-3,277,R,ugm-3
18-01-1988,02:00,85,R,ugm-3,65,R,ugm-3,195,R,ugm-3
18-01-1988,03:00,75,R,ugm-3,59,R,ugm-3,174,R,ugm-3
18-01-1988,04:00,116,R,ugm-3,80,R,ugm-3,258,R,ugm-3
18-01-1988,05:00,149,R,ugm-3,96,R,ugm-3,323,R,ugm-3
18-01-1988,06:00,153,R,ugm-3,69,R,ugm-3,302,R,ugm-3
18-01-1988,07:00,233,R,ugm-3,76,R,ugm-3,432,R,ugm-3
18-01-1988,08:00,339,R,ugm-3,92,R,ugm-3,609,R,ugm-3
18-01-1988,09:00,501,R,ugm-3,96,R,ugm-3,861,R,ugm-3
18-01-1988,10:00,456,R,ugm-3,94,R,ugm-3,791,R,ugm-3
18-01-1988,11:00,433,R,ugm-3,97,R,ugm-3,758,R,ugm-3
18-01-1988,12:00,410,R,ugm-3,107,R,ugm-3,733,R,ugm-3
18-01-1988,13:00,408,R,ugm-3,109,R,ugm-3,732,R,ugm-3
18-01-1988,14:00,246,R,ugm-3,82,R,ugm-3,458,R,ugm-3
18-01-1988,15:00,335,R,ugm-3,105,R,ugm-3,617,R,ugm-3
18-01-1988,16:00,325,R,ugm-3,78,R,ugm-3,575,R,ugm-3
18-01-1988,17:00,455,R,ugm-3,107,R,ugm-3,802,R,ugm-3
18-01-1988,18:00,511,R,ugm-3,105,R,ugm-3,886,R,ugm-3
18-01-1988,19:00,380,R,ugm-3,103,R,ugm-3,684,R,ugm-3
18-01-1988,20:00,249,R,ugm-3,107,R,ugm-3,487,R,ugm-3
18-01-1988,21:00,190,R,ugm-3,111,R,ugm-3,401,R,ugm-3
18-01-1988,22:00,184,R,ugm-3,97,R,ugm-3,378,R,ugm-3
18-01-1988,23:00,129,R,ugm-3,78,R,ugm-3,275,R,ugm-3
18-01-1988,24:00,56,R,ugm-3,55,R,ugm-3,141,R,ugm-3
19-01-1988,01:00,20,R,ugm-3,44,R,ugm-3,74,R,ugm-3
19-01-1988,02:00,18,R,ugm-3,38,R,ugm-3,65,R,ugm-3
19-01-1988,03:00,13,R,ugm-3,36,R,ugm-3,55,R,ugm-3
19-01-1988,04:00,11,R,ugm-3,38,R,ugm-3,55,R,ugm-3
19-01-1988,05:00,16,R,ugm-3,34,R,ugm-3,59,R,ugm-3
19-01-1988,06:00,20,R,ugm-3,36,R,ugm-3,67,R,ugm-3
19-01-1988,07:00,58,R,ugm-3,42,R,ugm-3,130,R,ugm-3
19-01-1988,08:00,113,R,ugm-3,50,R,ugm-3,222,R,ugm-3
19-01-1988,09:00,231,R,ugm-3,61,R,ugm-3,414,R,ugm-3
19-01-1988,10:00,163,R,ugm-3,67,R,ugm-3,315,R,ugm-3
19-01-1988,11:00,81,R,ugm-3,65,R,ugm-3,189,R,ugm-3
19-01-1988,12:00,15,R,ugm-3,31,R,ugm-3,53,R,ugm-3
19-01-1988,13:00,9,R,ugm-3,21,R,ugm-3,34,R,ugm-3
19-01-1988,14:00,9,R,ugm-3,19,R,ugm-3,32,R,ugm-3
19-01-1988,15:00,9,R,ugm-3,25,R,ugm-3,38,R,ugm-3
19-01-1988,16:00,9,R,ugm-3,31,R,ugm-3,44,R,ugm-3
19-01-1988,17:00,13,R,ugm-3,36,R,ugm-3,55,R,ugm-3
19-01-1988,18:00,14,R,ugm-3,34,R,ugm-3,55,R,ugm-3
19-01-1988,19:00,6,R,ugm-3,23,R,ugm-3,32,R,ugm-3
19-01-1988,20:00,5,R,ugm-3,27,R,ugm-3,34,R,ugm-3
19-01-1988,21:00,3,R,ugm-3,27,R,ugm-3,31,R,ugm-3
19-01-1988,22:00,3,R,ugm-3,21,R,ugm-3,25,R,ugm-3
19-01-1988,23:00,3,R,ugm-3,23,R,ugm-3,27,R,ugm-3
19-01-1988,24:00,3,R,ugm-3,21,R,ugm-3,25,R,ugm-3
20-01-1988,01:00,0,R,ugm-3,15,R,ugm-3,15,R,ugm-3
20-01-1988,02:00,0,R,ugm-3,15,R,ugm-3,15,R,ugm-3
20-01-1988,03:00,1,R,ugm-3,17,R,ugm-3,19,R,ugm-3
20-01-1988,04:00,1,R,ugm-3,23,R,ugm-3,25,R,ugm-3
20-01-1988,05:00,5,R,ugm-3,23,R,ugm-3,31,R,ugm-3
20-01-1988,06:00,19,R,ugm-3,36,R,ugm-3,65,R,ugm-3
20-01-1988,07:00,21,R,ugm-3,48,R,ugm-3,80,R,ugm-3
20-01-1988,08:00,21,R,ugm-3,46,R,ugm-3,78,R,ugm-3
20-01-1988,09:00,54,R,ugm-3,65,R,ugm-3,147,R,ugm-3
20-01-1988,10:00,51,R,ugm-3,69,R,ugm-3,147,R,ugm-3
20-01-1988,11:00,38,R,ugm-3,57,R,ugm-3,115,R,ugm-3
20-01-1988,12:00,29,R,ugm-3,46,R,ugm-3,90,R,ugm-3
20-01-1988,13:00,24,R,ugm-3,46,R,ugm-3,82,R,ugm-3
20-01-1988,14:00,40,R,ugm-3,61,R,ugm-3,122,R,ugm-3
20-01-1988,15:00,56,R,ugm-3,67,R,ugm-3,153,R,ugm-3
20-01-1988,16:00,56,R,ugm-3,65,R,ugm-3,151,R,ugm-3